Regional Weather Roundup
Issued by NWS Burlington, VT

Current Version | Previous Version | Graphics & Text | Print | Product List | Glossary Off
Versions: 1 2 3 4 5 6 7 8 9 10 11 12 13 14 15 16 17 18 19 20 21 22 23 24 25 26 27 28 29 30 31 32 33 34 35 36 37 38 39 40 41 42 43 44 45 46 47 48 49 50

000
ASUS41 KBTV 200810
RWRBTV
VERMONT REGIONAL WEATHER ROUNDUP
NATIONAL WEATHER SERVICE BURLINGTON VT
400 AM EDT SAT SEP 20 2014

NOTE: "FAIR" INDICATES FEW OR NO CLOUDS BELOW 12,000 FEET WITH NO
SIGNIFICANT WEATHER AND/OR OBSTRUCTIONS TO VISIBILITY.

* THESE REPORTS ARE NOT UNDER NWS QUALITY CONTROL AND/OR DO NOT
  REPORT WEATHER SUCH AS PRECIPITATION AND FOG.

VTZ001>019-200900-
_____VERMONT_____


CITY           SKY/WX    TMP DP  RH WIND       PRES   REMARKS
BURLINGTON     MOSUNNY   51  38  60 S14G25    30.22F
MONTPELIER     SUNNY     41  36  82 S5        30.31F
MORRISVILLE    MOSUNNY   43  36  76 S8        30.27F
ST. JOHNSBURY*   N/A     39  35  86 MISG      30.28F
MIDDLEBURY*    CLOUDY    47  41  78 S3        30.26F
RUTLAND*       CLOUDY    45  37  76 SE13      30.28F
SPRINGFIELD    CLOUDY    35  35 100 CALM      30.35F
HIGHGATE*      FAIR      52  38  60 S12G22    30.18F
NEWPORT*       FAIR      40  35  80 S8        30.25F
BENNINGTON     CLOUDY    52  42  69 S6        30.30R
SUTTON*          N/A     37 N/A N/A MISG        N/A

_____LAKE CHAMPLAIN_____


CITY           SKY/WX    TMP DP  RH WIND       PRES   REMARKS
COLCHESTER RF*   N/A     54  45  71 S36         N/A
DIAMOND ISL*     N/A     50  41  71 S12         N/A

$$

NYZ007-026>031-035-052-083-200900-
_____NORTHERN NEW YORK_____


CITY           SKY/WX    TMP DP  RH WIND       PRES   REMARKS
PLATTSBURGH    MOSUNNY   40  38  93 S3        30.19F
SARANAC LAKE   PTSUNNY   47  41  80 W6        30.15F
MASSENA        PTSUNNY   41  40  96 CALM      30.12F
OGDENSBURG*    MOSUNNY   54  48  82 SW5       30.10F
POTSDAM*       CLOUDY    55  50  82 S6        30.11S
WATERTOWN      MOSUNNY   59  47  64 S10G20    30.10F
FT DRUM        PTSUNNY   53  46  76 SE12      30.11F
ALBANY         MOSUNNY   52  44  74 S10       30.29S
GLENS FALLS    CLOUDY    47  42  83 CALM      30.28F

$$
NHZ002-005-011-200900-
_____NEW HAMPSHIRE_____


CITY           SKY/WX    TMP DP  RH WIND       PRES   REMARKS
LEBANON        MOSUNNY   38  34  85 NE5       30.33S
KEENE          MOSUNNY   36  28  75 N3        30.38R
MT WASHINGTON  FOG       30  30 100 W48         N/A  VSB 0   WCI  12
PLYMOUTH       CLOUDY    31  31 100 CALM      30.37S
WHITEFIELD     PTSUNNY   30  28  92 CALM      30.31S

$$

_____REGIONAL QUEBEC LOCATIONS_____


CITY           SKY/WX    TMP DP  RH WIND       PRES   REMARKS
MONTREAL       CLOUDY    50  39  66 SE16      30.12F
QUEBEC CITY    MOSUNNY   37  32  81 N2        30.16F
SHERBROOKE     SUNNY     34  32  93 SE3       30.21F

_____REGIONAL ONTARIO LOCATIONS_____


CITY           SKY/WX    TMP DP  RH WIND       PRES   REMARKS
OTTAWA         PTSUNNY   45  41  87 SE8       30.06F

______KEY______
VSB  - VISIBILITY IN MILES
WCI  - WIND CHILL INDEX
HX   - HEAT INDEX
$$
NNNN



USA.gov is the U.S. government's official web portal to all federal, state and local government web resources and services.